GFSSW_925_spd_333.txt.gz
Wind_Speed
11 12 9 8 8 8 7 8 7 6 6 6 7 7 7 7 9 7 6 6 5 5 6 5 6 4 3 2 2 4 3 3 4 6 4 1 2 1 2 2 3 2 3 2 19
9 9 11 10 8 10 8 8 8 7 5 6 7 7 7 9 9 11 10 7 8 10 6 9 4 5 1 3 1 4 3 8 4 3 3 1 1 3 3 3 3 3 1 6 26
12 10 10 13 11 11 10 8 8 7 6 6 6 7 7 8 3 5 5 13 9 8 7 6 5 2 2 2 4 4 6 3 3 2 1 2 3 1 1 5 9 7 5 7 10
13 14 12 11 13 12 11 9 8 9 6 6 5 6 6 3 3 2 0 12 9 9 8 6 3 3 4 5 4 3 6 4 4 1 0 3 2 5 7 9 2 7 5 7 9
14 16 15 13 12 15 12 10 9 9 7 6 5 4 2 1 7 2 3 9 9 10 8 5 5 4 3 3 4 3 3 4 4 5 5 2 7 6 11 12 9 5 3 9 8
14 14 15 15 14 11 15 12 11 9 7 6 4 3 2 2 2 3 4 8 8 11 6 5 6 5 3 2 4 2 3 6 5 3 4 4 3 1 7 1 3 7 10 9 11
15 13 15 17 15 13 15 15 12 10 8 6 4 2 1 10 2 2 5 6 7 8 4 4 2 2 1 1 1 2 5 6 6 2 5 3 5 9 9 7 7 3 6 8 11
18 17 14 16 15 13 12 17 13 9 8 6 4 3 6 4 5 8 7 6 5 5 1 4 1 3 2 1 4 1 2 3 1 6 2 4 8 2 3 4 7 7 6 6 5
20 20 16 15 16 13 13 19 14 10 7 5 5 4 8 2 5 10 10 4 7 5 1 5 2 2 2 4 3 1 3 5 7 7 3 4 7 4 2 5 7 8 8 7 7
24 21 19 15 13 11 12 16 13 10 8 4 2 1 4 3 4 10 10 10 2 5 3 3 4 2 2 4 6 6 4 5 5 2 2 2 12 10 9 6 11 11 9 8 8
27 24 22 17 14 13 12 11 4 4 7 9 6 3 2 2 4 7 10 7 4 3 6 2 3 9 18 4 2 3 3 4 3 1 1 6 9 14 11 6 10 10 8 7 2
25 25 23 19 15 16 14 4 4 2 5 16 1 4 3 4 2 3 14 6 5 6 5 3 10 10 5 5 4 2 0 4 3 1 2 5 14 11 8 4 3 7 2 6 5
28 26 25 21 15 13 18 10 7 2 4 4 8 6 5 8 5 8 11 6 4 6 8 7 4 10 8 4 7 5 5 4 2 2 1 6 8 4 1 2 3 6 4 4 7
32 30 26 22 11 16 10 21 10 5 5 4 7 8 6 7 5 9 16 6 4 10 8 6 4 5 5 8 7 5 8 6 2 2 4 2 5 5 1 2 2 3 4 5 6
33 33 29 28 9 8 4 22 24 1 5 7 8 8 11 12 11 9 10 3 6 7 7 9 8 6 5 6 8 5 4 6 2 3 2 2 1 7 3 4 5 6 6 6 6
33 35 33 29 23 13 13 21 20 7 12 8 7 10 12 11 3 5 6 3 3 4 2 5 0 3 7 2 7 9 7 7 5 3 2 6 6 6 5 4 3 3 5 7 7
30 35 34 29 18 29 13 7 11 16 4 9 9 11 12 9 8 7 16 17 7 5 6 1 3 1 3 6 3 4 6 3 3 2 6 3 2 8 3 3 2 6 7 7 7
33 34 33 32 26 21 15 6 20 10 11 4 9 13 12 12 6 8 18 14 16 1 4 8 4 9 5 6 9 6 7 6 8 4 3 3 7 6 4 1 1 1 6 6 7
31 26 29 27 33 29 10 14 22 11 17 11 14 16 10 14 7 8 16 16 25 21 9 6 6 2 1 2 5 6 6 5 7 2 3 4 6 8 3 2 2 3 5 6 7
27 18 27 23 33 23 12 28 13 6 8 9 17 13 15 22 10 17 15 13 10 22 6 6 2 1 0 1 1 3 7 3 2 4 4 4 5 5 6 8 5 5 6 5 5
22 6 13 37 29 9 14 17 19 8 3 13 10 9 16 16 18 18 17 4 22 22 11 4 2 1 3 7 9 3 3 3 5 5 6 3 6 6 8 9 9 7 5 3 6
8 6 23 40 12 6 13 8 22 21 8 5 6 5 15 19 18 14 18 11 23 20 22 5 4 4 6 3 3 2 5 6 5 5 2 3 6 3 6 8 8 7 6 4 5
7 4 17 32 14 15 5 7 18 19 19 6 6 5 5 14 10 16 15 8 13 20 23 15 5 4 4 5 1 5 5 3 4 3 7 6 5 4 5 7 6 8 6 4 5
4 5 4 10 4 19 18 14 18 23 9 5 4 5 8 8 3 15 9 3 15 20 13 21 4 6 9 3 9 6 7 7 4 4 6 7 5 5 7 8 7 7 6 6 4
8 7 5 9 12 16 16 11 21 15 21 16 5 9 7 6 8 8 6 4 5 14 15 14 10 14 4 2 3 6 16 16 12 13 12 9 9 11 15 14 10 7 7 6 3
8 3 2 3 10 20 20 24 12 21 13 21 20 12 10 8 9 11 14 7 8 11 16 5 3 4 9 2 2 3 10 18 22 12 7 4 5 5 8 8 7 8 9 7 6
7 1 2 6 13 12 20 23 28 17 12 14 21 12 13 8 3 4 6 8 12 16 13 9 5 4 3 4 6 5 19 15 16 8 15 16 9 6 5 13 11 9 8 8 7

GFSSW_925_spd_336.txt.gz
Wind_Speed
10 9 8 8 8 10 8 8 8 7 6 6 6 6 6 8 10 8 6 6 3 10 6 4 4 3 1 3 3 4 3 3 5 6 4 1 0 1 2 1 2 4 3 1 17
13 10 8 8 9 9 9 9 8 8 7 7 7 7 6 8 9 11 13 8 8 8 6 8 4 4 1 2 1 4 4 9 4 4 2 2 1 3 3 2 4 4 1 5 22
13 14 11 10 8 11 9 9 8 8 8 6 6 7 7 7 2 5 5 12 8 8 5 6 6 3 3 2 3 4 6 4 3 4 2 1 2 1 1 5 9 6 4 6 9
14 15 15 13 13 9 11 10 9 9 8 7 6 6 7 3 4 1 4 10 8 7 6 7 4 5 4 5 4 2 6 4 2 1 1 2 3 5 7 8 3 4 4 7 9
14 13 15 15 15 13 10 12 10 9 9 8 6 4 3 3 8 1 3 9 7 8 6 4 4 5 5 4 4 3 3 3 5 4 4 2 6 6 10 12 10 5 4 9 9
14 15 14 14 16 14 12 12 11 10 8 8 5 3 1 5 3 2 5 9 9 8 4 4 5 5 3 3 5 3 3 5 5 4 3 4 3 1 5 1 3 5 9 8 9
16 16 15 15 15 15 12 11 14 11 8 7 4 2 2 11 3 3 5 6 9 9 4 4 1 1 2 1 2 1 4 6 6 4 6 5 7 10 8 4 8 6 4 9 10
22 16 17 15 16 16 14 15 12 11 7 6 3 2 7 5 6 9 8 6 6 8 3 5 1 1 1 1 4 1 2 2 1 5 1 3 9 4 4 5 6 6 6 6 6
21 20 17 16 16 16 14 13 11 11 6 4 2 2 8 3 4 9 10 6 7 6 3 6 2 2 2 3 3 3 3 4 7 6 3 5 7 4 3 4 5 6 6 6 6
25 21 19 16 15 15 13 14 10 9 7 4 1 1 5 4 4 8 10 11 3 4 3 4 4 3 2 4 6 6 4 4 4 1 2 3 12 10 9 7 10 9 8 8 7
25 24 24 20 17 13 10 4 4 2 6 8 5 4 1 2 5 5 7 8 3 4 5 2 4 9 15 5 2 3 3 2 3 1 2 6 9 13 11 6 10 7 9 8 6
27 25 22 22 20 15 9 5 1 2 4 19 6 7 3 4 2 2 10 6 5 5 6 3 10 8 6 7 5 1 1 4 3 1 2 4 13 10 9 6 4 5 7 4 6
30 27 24 22 21 19 16 17 7 7 5 4 15 7 5 6 5 7 9 4 4 6 7 6 3 9 7 5 8 4 6 3 3 3 1 6 9 4 1 2 2 1 1 3 7
29 29 28 23 17 16 11 20 23 9 5 8 9 9 8 7 6 11 16 5 3 10 8 6 4 5 4 6 7 5 9 6 1 4 4 3 5 5 2 5 3 3 3 5 7
31 30 26 28 9 7 7 21 21 4 6 8 11 9 11 13 11 8 18 3 7 7 8 9 8 6 5 7 8 5 5 7 4 4 1 2 1 8 2 6 7 7 6 6 6
32 31 30 29 29 19 14 16 18 8 12 7 8 14 11 13 3 5 6 4 4 5 2 5 1 5 5 2 10 8 7 7 4 3 2 7 7 5 5 6 3 4 6 8 7
36 34 36 34 22 25 20 9 11 17 1 8 8 11 18 10 9 8 14 15 9 6 6 1 4 2 3 6 3 2 6 3 3 2 6 2 3 8 4 5 5 8 8 8 8
39 37 37 37 34 29 22 12 19 22 13 3 8 15 16 11 11 9 17 14 18 3 4 8 4 9 5 6 8 7 7 6 8 5 3 2 7 6 4 5 3 3 7 7 8
40 43 31 35 40 34 13 20 18 16 19 8 11 18 11 15 9 12 17 19 19 16 14 9 7 1 1 4 8 6 7 4 6 2 2 5 7 9 5 4 4 5 6 8 8
40 23 29 41 38 30 18 26 10 9 11 8 16 14 25 21 13 19 17 16 10 23 2 6 3 1 2 2 1 4 7 3 2 4 4 4 5 5 5 9 7 7 8 7 6
29 8 16 43 28 12 14 21 6 16 6 18 17 14 19 18 20 17 19 8 20 19 11 3 2 1 5 6 8 4 3 3 4 4 5 2 6 7 8 9 10 8 7 7 7
16 8 23 40 12 7 19 11 14 12 12 9 4 6 14 22 18 19 20 16 20 18 23 6 4 4 4 1 2 3 5 6 5 6 2 3 6 1 5 7 9 8 7 4 5
7 7 13 36 14 18 12 7 17 16 15 17 8 8 5 17 11 20 13 8 8 21 23 13 5 4 3 5 2 5 5 4 4 3 7 6 7 4 2 7 6 9 7 5 5
7 6 4 10 5 21 15 22 10 15 21 7 4 5 7 16 9 19 10 5 10 13 9 17 3 11 13 6 12 10 8 7 4 4 5 7 4 3 5 8 8 7 7 6 5
2 3 4 4 13 18 18 10 22 14 14 19 14 13 8 6 20 8 17 5 7 17 7 12 12 12 4 4 9 8 14 11 9 18 11 15 8 8 13 13 10 8 7 7 4
4 2 2 3 8 14 18 16 19 6 11 18 20 20 19 4 14 9 17 7 7 10 16 5 3 6 7 1 2 2 7 17 23 17 13 2 6 5 4 7 7 9 9 8 7
8 1 4 6 7 12 10 16 18 22 14 13 25 17 13 7 9 8 12 11 12 16 20 11 5 7 7 7 6 4 20 17 17 22 25 17 10 5 5 10 12 11 11 10 9

GFSSW_925_spd_339.txt.gz
Wind_Speed
9 7 14 7 8 7 7 7 7 8 8 7 7 8 9 10 12 9 7 4 2 12 4 5 5 6 4 3 3 3 3 3 5 7 4 2 1 1 2 2 3 3 1 1 16
12 9 10 10 13 9 9 8 8 8 8 7 7 8 9 11 13 11 10 7 7 6 7 9 4 6 3 2 1 3 4 9 4 4 3 1 1 2 2 2 3 3 3 6 20
13 13 13 12 10 10 9 10 9 9 7 7 6 7 8 10 4 4 4 7 7 10 4 5 8 4 4 3 4 4 5 3 3 4 2 2 2 2 2 5 9 6 4 6 12
16 15 13 14 14 12 10 10 11 9 8 6 6 5 7 4 3 2 5 7 12 10 8 7 3 5 4 6 4 2 6 4 3 1 1 3 3 4 7 7 3 7 3 7 10
15 16 15 15 13 15 13 11 12 11 9 7 5 4 2 1 7 3 1 8 9 12 10 5 4 4 5 4 5 4 4 4 5 5 5 1 7 6 9 12 8 6 5 8 10
19 16 14 17 16 15 15 13 13 12 10 7 5 2 3 4 2 2 4 7 6 8 9 7 6 4 3 3 4 4 3 5 6 6 4 5 4 2 6 0 1 4 9 7 9
19 21 18 13 16 17 16 14 13 9 9 7 4 2 2 11 2 2 4 5 8 7 3 7 5 4 2 1 2 0 4 5 7 4 6 6 7 10 6 3 8 7 6 8 8
19 19 22 14 14 17 18 14 13 11 9 5 3 2 6 4 6 10 6 4 6 7 1 6 5 4 3 1 4 1 2 1 1 6 2 5 9 3 3 6 8 5 6 6 8
23 21 18 19 15 15 16 14 13 9 9 5 2 3 7 3 5 8 10 5 7 5 3 4 1 2 3 4 4 2 4 5 6 6 3 4 6 2 2 3 3 4 5 6 6
22 22 21 18 16 16 15 13 10 7 6 6 2 1 4 5 5 9 11 10 3 5 4 4 4 2 3 4 6 6 4 4 5 2 3 3 13 12 7 6 10 8 7 7 8
25 24 23 17 15 18 11 5 2 2 7 8 4 3 3 3 7 6 10 9 3 4 5 3 4 7 11 9 2 4 4 3 3 1 3 6 10 15 10 6 9 10 8 9 8
24 21 21 19 16 15 10 3 3 4 7 17 9 6 9 6 4 4 13 7 5 5 7 4 9 9 4 4 3 2 3 4 4 1 3 5 13 13 8 7 7 7 7 7 5
24 21 21 20 19 16 16 15 18 14 4 6 10 8 5 9 7 11 11 5 5 5 7 7 4 8 8 5 5 3 5 3 4 3 1 6 8 5 2 3 3 3 3 2 7
24 21 21 20 18 17 9 19 19 9 5 7 9 9 9 7 7 11 19 6 4 10 6 6 5 6 6 6 8 6 8 7 4 1 4 2 5 6 3 6 5 5 4 5 5
25 23 20 22 7 13 9 11 14 7 5 8 10 10 12 14 11 6 11 4 9 8 7 8 10 7 6 7 9 5 3 7 2 1 4 1 2 7 1 6 8 8 7 6 7
26 24 23 25 27 18 13 15 13 8 12 5 8 13 12 14 3 5 7 3 5 6 2 4 1 4 7 4 12 8 6 6 4 3 2 7 7 5 5 8 3 4 7 8 7
32 30 29 30 19 23 21 9 7 13 2 6 8 10 20 13 10 9 15 13 10 7 8 3 4 3 3 7 3 3 6 2 3 2 6 3 2 7 7 5 4 8 9 8 7
30 28 32 34 32 24 25 9 16 15 17 3 7 13 20 15 15 14 17 17 18 2 5 10 5 11 6 6 9 7 8 6 7 4 3 2 7 7 4 6 3 6 8 7 7
32 33 32 34 35 34 10 18 23 9 27 8 8 11 15 16 8 14 17 19 19 20 14 9 7 3 2 5 10 6 7 6 7 2 2 5 7 10 6 5 5 6 7 9 8
33 28 29 37 35 30 13 30 21 12 16 15 20 14 18 19 12 20 16 18 10 19 0 8 3 2 1 1 3 5 8 4 2 3 4 4 5 6 5 10 7 8 8 7 7
32 8 27 37 32 14 18 16 23 11 11 31 25 15 17 15 18 19 16 9 27 21 12 6 4 1 3 6 11 4 3 2 4 5 5 1 6 8 10 8 14 10 9 9 8
16 13 24 34 18 17 20 18 20 16 23 10 5 12 15 23 17 20 21 16 19 19 23 6 5 4 6 3 2 2 3 7 5 7 2 3 7 1 5 5 8 8 7 6 6
11 5 16 34 22 17 16 7 24 25 19 16 9 9 8 16 17 22 21 8 6 19 20 15 5 4 3 3 2 6 9 10 3 3 9 7 11 1 3 4 6 9 8 7 7
6 8 7 11 15 23 26 25 16 16 21 21 12 7 8 13 15 17 16 4 10 14 11 19 3 16 16 8 9 9 9 9 10 11 11 9 11 4 5 7 6 7 7 7 7
7 4 3 14 15 19 20 11 22 13 14 18 16 17 13 18 22 14 24 5 5 15 12 12 16 11 4 4 5 8 19 17 14 23 14 18 10 7 9 11 7 7 6 7 6
5 4 0 3 14 18 24 20 21 19 10 20 14 18 14 14 16 19 15 13 9 9 21 6 4 4 7 3 5 2 11 19 24 21 21 5 7 8 2 8 7 8 9 8 8
4 3 5 6 11 15 14 17 23 21 15 8 18 17 20 20 10 6 5 10 7 16 21 11 6 4 10 7 8 3 18 19 15 18 24 10 31 8 6 10 14 15 14 12 8

GFSSW_925_spd_342.txt.gz
Wind_Speed
12 11 13 11 13 8 9 9 8 8 8 7 7 7 8 9 11 8 6 4 2 11 3 6 4 5 3 3 3 2 5 7 5 5 0 1 4 3 0 3 3 4 1 4 15
12 14 14 14 12 11 10 10 10 9 9 8 7 7 8 10 11 8 8 6 6 4 8 9 6 7 4 4 3 5 5 7 1 2 2 1 3 1 3 5 6 6 4 9 15
14 13 14 14 15 13 11 10 11 10 9 9 8 8 7 9 5 2 2 5 8 8 6 6 6 4 4 4 6 4 6 4 3 6 4 3 4 2 4 8 10 9 9 12 16
14 14 14 14 15 15 15 12 12 11 9 9 9 8 7 4 4 1 4 5 10 11 8 7 7 6 5 7 5 5 8 5 1 2 2 4 3 5 9 9 2 3 4 11 14
15 15 14 14 16 15 15 15 12 9 10 8 7 7 4 3 7 2 1 8 11 11 8 5 9 5 6 4 5 7 4 4 6 6 7 5 12 11 15 15 11 5 4 9 12
14 15 17 16 12 15 17 16 14 10 10 8 5 4 1 6 3 4 5 8 8 10 7 7 5 3 3 3 8 1 5 8 6 9 7 7 9 3 8 2 7 11 12 14 14
17 17 14 16 15 12 16 17 15 13 10 7 4 2 3 12 3 5 8 7 8 8 6 5 3 3 3 3 2 1 5 7 10 6 6 6 10 15 17 6 9 9 8 9 13
17 19 21 17 14 11 15 16 17 12 10 7 4 2 7 6 9 13 10 8 7 8 2 8 4 3 1 1 1 2 2 4 2 6 2 7 13 2 1 7 12 12 8 7 13
21 19 18 19 17 17 16 18 15 9 7 8 5 3 8 4 6 13 15 8 12 7 5 7 4 2 3 2 3 3 5 7 4 6 3 8 8 2 1 3 5 7 8 9 8
24 22 20 19 17 17 14 19 12 3 8 7 1 2 6 4 5 8 12 14 4 10 6 4 2 5 4 8 8 8 5 4 6 4 5 7 20 16 10 9 10 9 9 8 10
22 23 23 20 18 13 11 11 3 4 8 10 7 4 1 2 7 6 10 7 5 6 9 6 8 14 20 20 4 2 4 6 2 0 4 13 18 18 16 13 15 14 13 11 11
25 23 21 21 19 16 10 5 5 3 8 23 20 14 8 3 4 8 13 10 8 9 9 6 15 14 9 10 12 9 5 6 5 1 4 9 17 19 17 15 15 16 14 13 10
24 25 20 18 17 17 17 13 8 10 6 11 20 23 14 11 7 16 17 7 9 12 17 12 5 12 12 9 12 14 16 10 5 5 4 9 17 13 5 9 9 11 9 8 11
23 24 21 18 11 17 17 18 16 4 5 9 10 12 19 11 11 12 24 9 6 15 12 10 7 8 12 16 14 13 14 14 10 4 6 2 8 9 4 9 8 10 10 9 9
24 25 24 24 9 14 11 18 9 5 6 6 14 8 17 22 15 14 24 3 13 11 9 7 12 14 8 10 18 5 5 10 9 9 5 9 7 7 3 9 13 13 12 9 9
23 25 25 23 20 15 18 19 12 7 14 5 11 14 14 24 10 11 16 5 3 9 4 4 0 6 5 3 17 12 8 6 3 3 5 10 10 8 9 9 5 4 11 10 11
25 25 26 26 18 22 22 14 8 13 2 9 9 11 21 14 19 16 20 17 12 8 13 9 9 4 5 8 4 6 10 2 2 3 6 4 7 13 7 9 6 6 12 11 11
28 28 29 29 27 23 23 9 18 23 27 8 9 16 18 18 18 16 21 20 25 15 11 12 8 14 10 7 11 10 8 5 7 6 2 3 9 6 8 4 8 5 11 12 12
29 32 30 30 28 30 10 18 19 19 25 14 13 17 14 19 12 16 20 26 24 26 13 12 11 12 14 5 10 7 7 2 5 2 2 6 7 10 11 13 9 8 11 14 14
32 28 29 29 33 24 13 32 14 20 9 26 23 18 19 16 19 20 21 21 21 25 17 8 4 3 7 6 2 8 10 4 2 6 8 7 6 8 3 13 8 10 10 13 13
31 11 20 36 31 11 16 21 18 18 22 15 31 24 20 21 21 16 19 13 32 23 20 6 3 3 7 13 17 7 6 4 3 5 5 8 10 9 14 8 14 15 13 13 14
15 14 21 34 16 8 18 15 24 24 25 20 13 23 25 25 23 18 30 22 21 23 28 17 3 7 11 2 4 18 17 13 9 10 6 5 12 3 5 3 5 12 11 11 12
10 8 13 32 18 19 19 17 21 13 28 27 20 17 24 25 25 26 18 19 12 23 19 19 7 7 4 3 4 10 11 21 15 2 11 7 16 1 4 6 6 10 11 11 12
5 5 6 9 13 17 22 27 23 26 23 27 26 24 22 26 24 16 26 13 15 22 18 14 5 20 18 23 13 13 22 19 17 7 21 15 28 12 6 8 5 7 8 10 10
4 7 5 7 13 19 24 20 28 24 27 23 25 27 23 25 26 27 21 23 12 19 21 9 16 15 23 6 17 18 20 20 18 29 14 29 26 20 9 8 6 8 7 8 6
3 4 4 6 16 24 29 24 31 31 18 23 32 27 27 20 25 24 24 22 18 13 22 13 4 16 17 8 7 10 21 23 26 23 19 12 16 17 13 5 8 13 12 12 13
9 9 3 7 13 15 22 30 24 29 25 31 18 26 30 27 24 7 13 4 1 9 16 14 7 7 20 9 5 6 20 28 23 22 30 16 36 6 9 12 14 16 18 17 14

GFSSW_925_spd_345.txt.gz
Wind_Speed
12 13 13 12 10 10 12 10 12 13 13 13 13 12 12 13 14 8 8 5 4 10 3 3 6 6 5 3 4 3 6 9 11 7 1 2 5 4 2 6 5 4 2 7 17
12 12 12 12 13 11 10 9 12 13 13 13 13 13 13 14 13 14 10 8 8 4 7 9 7 8 5 4 4 7 9 10 3 5 4 1 5 2 5 10 10 8 6 11 15
12 12 12 12 12 13 14 13 10 12 13 13 12 13 12 14 8 3 4 5 9 7 5 7 6 8 10 5 7 5 10 8 5 5 5 6 7 6 7 9 10 9 14 12 13
14 13 13 14 13 13 14 15 14 12 11 12 12 12 12 5 5 2 2 5 10 8 6 8 8 6 8 10 9 8 11 12 3 1 3 8 6 8 13 15 4 3 1 14 15
13 13 14 15 14 14 13 15 15 14 11 11 10 10 6 6 7 5 1 6 10 9 10 9 10 10 8 6 7 11 13 8 9 8 10 12 14 14 18 15 14 6 6 12 13
16 16 14 15 15 14 13 16 16 15 12 9 9 7 4 8 4 3 4 8 7 11 9 10 5 6 6 6 10 4 9 12 11 12 10 8 15 3 10 10 17 17 15 14 14
16 17 17 15 15 14 12 13 16 17 13 9 7 4 7 16 4 5 8 5 8 10 8 10 5 8 3 4 6 5 9 13 13 12 9 4 12 17 21 18 11 11 11 12 13
19 18 17 18 18 15 13 13 17 19 11 9 8 3 7 6 7 11 8 4 6 7 6 7 4 7 5 1 3 4 4 6 3 9 3 7 15 2 4 8 14 16 14 13 12
24 24 22 19 17 16 15 16 18 18 10 9 5 5 8 4 6 12 13 4 7 5 3 8 6 5 4 6 5 7 8 10 8 7 2 12 10 1 1 6 10 10 10 10 9
23 25 24 23 21 16 15 15 17 13 5 7 4 3 9 5 6 8 13 10 4 8 4 6 6 8 9 9 9 12 11 12 11 5 7 10 19 17 12 7 8 8 8 9 10
25 25 24 23 20 17 13 9 7 5 11 12 9 13 3 3 6 8 12 13 7 11 10 13 9 15 20 20 13 6 10 12 7 1 3 11 18 18 16 15 14 14 12 13 10
25 24 21 22 20 20 14 8 4 5 8 24 26 16 20 4 6 9 15 12 11 14 14 7 19 16 15 16 16 11 11 13 9 4 4 13 18 19 19 19 17 17 16 15 13
23 22 23 21 22 18 19 18 9 7 6 16 23 26 21 17 9 16 18 13 14 18 18 16 4 15 16 14 15 16 17 13 11 4 11 12 19 21 16 14 16 16 14 13 14
21 22 21 20 16 18 20 20 9 2 6 9 15 13 31 9 12 19 25 13 9 19 16 16 16 6 17 19 16 14 12 15 11 5 5 2 9 14 8 8 10 13 14 15 12
21 24 21 20 5 18 9 16 12 4 7 9 21 7 18 28 12 23 29 17 16 14 10 9 10 14 13 9 15 3 4 10 10 9 10 11 7 6 9 9 14 14 13 14 12
22 21 24 21 26 16 15 20 10 6 14 7 12 16 17 31 17 18 18 14 9 16 17 15 1 14 14 8 18 10 9 7 3 2 6 10 12 11 13 12 11 4 10 11 10
21 24 24 23 13 23 16 11 8 14 6 10 10 13 21 18 28 17 26 26 15 11 18 15 14 5 7 10 9 12 11 2 2 3 7 3 10 16 12 6 7 8 7 11 11
25 28 27 28 24 25 23 10 17 23 23 11 13 18 21 20 30 23 24 25 29 21 10 14 10 18 14 14 9 20 16 6 7 6 3 2 9 7 7 7 5 6 5 10 12
27 29 28 29 28 30 9 16 18 20 28 22 14 15 19 24 13 21 28 27 26 29 12 14 13 22 20 11 16 10 12 9 3 2 3 7 14 13 12 13 12 10 8 12 13
27 25 30 32 30 22 10 30 24 23 18 26 30 19 17 24 20 22 19 24 29 28 22 7 4 4 12 13 13 13 14 5 4 7 11 13 19 12 4 10 13 10 9 9 12
27 10 22 32 27 11 12 8 28 29 22 28 25 30 24 20 28 18 20 19 31 28 26 16 6 1 10 15 18 9 12 10 8 10 8 7 11 13 14 16 9 11 12 13 14
16 13 23 29 14 8 16 12 15 29 29 14 12 22 32 28 25 30 28 26 17 27 27 26 9 7 16 6 17 23 21 23 9 6 11 8 14 4 3 3 3 4 9 11 12
11 12 21 30 18 17 17 14 23 13 31 18 18 18 21 29 22 26 30 22 19 22 19 19 6 9 5 5 13 12 22 22 18 2 11 8 11 13 9 6 5 5 8 9 11
7 6 5 8 8 23 21 22 20 23 20 30 15 23 24 20 23 19 24 21 18 17 22 14 15 22 20 25 11 11 21 24 21 11 19 18 27 10 5 8 6 6 6 10 11
5 6 5 9 15 23 27 21 29 18 24 19 18 27 21 18 22 23 26 21 22 22 22 18 11 23 27 24 17 19 21 23 20 29 17 26 24 23 17 8 3 6 8 9 8
3 4 3 3 14 20 24 23 26 17 25 23 27 24 23 23 26 19 24 25 20 22 23 21 7 15 25 20 21 12 23 23 24 27 22 21 19 15 14 12 4 7 10 12 12
8 3 4 8 17 15 19 26 27 26 23 24 23 24 30 31 25 24 24 22 20 19 20 23 8 10 20 23 17 15 16 26 26 24 28 20 30 10 12 13 14 13 14 15 15